INTELSAT 33E DEB, 64399

Orbit data source: Space-Track

INTELSAT 33E DEB, 64399 is space debris in GEO originally from a launch on Wed, 24 Aug 2016 UTC launched from the French Guiana (FRGUI). Debris objects in space refer to the collection of defunct objects orbiting the Earth. Examples of debris include non-operational satellites, rocket bodies, and fragments generated from explosions, collisions, or faulty payload assembly.

Not visible in the next 10 days
Identifier
64399, 2016-053AD
Orbit
GEO
Country
Flag of USUS / ITSO
Related business
Manufacturer
Boeing/ES
Mission
Spacecraft
Bus & Motor
Unknown
Mass
Unknown
Launch date (UTC)
2016-08-24 (10 years ago)
Launch vehicle
Unknown
Launch site
French Guiana (FRGUI)
Object type
Payload
Rocket body
Debris
Shape & HBR
Unknown shape, 1.1 m
Radar Cross Section
RCS unknown

Expand to show TLE details & history
Last TLE update: 4 months ago

TLE from 4 months ago
0 INTELSAT 33E DEB
1 64399U 16053AD  26056.84607028 -.00000303  00000-0  00000-0 0  9997
2 64399   1.3084  58.8286 0520584 324.9740  32.3647  0.98863655  4727
Epoch: 2026-02-25T20:18Z
TLE epoch observation values (Epoch: 2026-02-25T20:18:20.472Z)
Latitude
Longitude
-40.69558°
Altitude
34,357.582 km
Speed
3.195 km/s
True Right ascension
03h 58m 22s
True Declination
0° 00' 00"
Sunlit
Object was in daylight at epoch
Visualization orbit readout
Latitude
Unknown
Longitude
Unknown
Altitude
Unknown
Speed
Unknown
Apparent Right ascension
Unknown
Apparent Declination
Unknown
Sunlit
N/A
Visualization observer readout
Local Sidereal Time
06:36:30
Azimuth
Unknown
Elevation
Unknown
Doppler factor
Unknown
Orbital elements
Apogee altitude
38,402.965 km
Perigee altitude
33,971.21 km
Semi-major axis
42,565.224 km
Eccentricity
0.05206
Inclination
1.3084°
RAAN
58.8286°
Arg. of periapsis
324.974°
True anomaly
35.74134°
Mean anomaly
32.3647°
Eccentric anomaly
34.03409°
Mean motion
0.24715 °/min
Orbital period
1,456.6 mins
BSTAR
0
Loading maneuver chart data...
Computing Atmospheric mass density...
Loading historical data...
Loading historical data...
Loading historical data...
Loading historical data...
Loading historical data...
Loading historical data...
Loading historical data...

Documentation

Showing up to 5 results
|